W4RJG Weather Reports


Display with metric or nautical units.
time (UTC)temp
F
wind
direction
speed
MPH
gust
MPH
rain 1hr
in
rain 24hr
in
rain mn
in
humidity
%
barometer
mb
20260502152004 58 69 1.0 6.0 0.00 0.00 0.00 60 1003.4
20260502151004 57 13 2.0 6.0 0.00 0.00 0.00 59 1003.4
20260502123004 54 37 0.0 0.0 0.00 0.00 0.00 79 1003.0
20260502122004 54 2 0.0 0.0 0.00 0.00 0.00 80 1003.0
20260502121005 54 91 0.0 0.0 0.00 0.00 0.00 79 1003.0
20260502114004 53 55 0.0 0.0 0.00 0.00 0.00 79 1002.7
20260502112004 52 10 0.0 2.0 0.00 0.00 0.00 79 1002.7
20260502111005 52 28 0.0 0.0 0.00 0.00 0.00 78 1002.9
20260502110004 52 175 0.0 2.0 0.00 0.00 0.00 77 1002.9
20260502105004 53 25 1.0 2.0 0.00 0.00 0.00 77 1002.7
20260502104004 53 63 1.0 3.0 0.00 0.00 0.00 77 1002.7
20260502103005 53 291 0.0 3.0 0.00 0.00 0.00 77 1002.7
20260502102004 53 59 1.0 3.0 0.00 0.00 0.00 77 1003.0
20260502101004 53 359 2.0 3.0 0.00 0.00 0.00 77 1002.7
20260502091004 53 324 2.0 3.0 0.00 0.00 0.00 79 1002.4
20260502071004 51 88 1.0 3.0 0.00 0.00 0.00 92 1001.4
20260502070004 50 317 0.0 2.0 0.00 0.00 0.00 92 1001.4
20260502065004 50 357 0.0 2.0 0.00 0.00 0.00 92 1001.4
20260502064004 50 6 1.0 2.0 0.00 0.00 0.00 92 1001.5
20260502063005 50 291 0.0 2.0 0.00 0.00 0.00 92 1001.7
20260502062004 50 21 0.0 2.0 0.00 0.00 0.00 92 1001.7
20260502061004 50 329 0.0 0.0 0.00 0.00 0.00 92 1001.7
20260502054005 51 338 1.0 1.0 0.00 0.00 0.00 91 1001.7
20260502053004 51 357 0.0 2.0 0.00 0.00 0.00 90 1002.0
20260502052004 51 209 0.0 2.0 0.00 0.00 0.00 89 1002.0
20260502051004 51 259 0.0 0.0 0.00 0.00 0.00 88 1002.4
20260502050004 51 257 0.0 3.0 0.00 0.00 0.00 89 1002.4
20260502045004 51 68 0.0 0.0 0.00 0.00 0.00 88 1002.4
20260502044005 51 19 0.0 0.0 0.00 0.00 0.00 87 1002.0
20260502043004 52 342 0.0 0.0 0.00 0.00 0.00 87 1002.0
20260502042004 52 297 0.0 0.0 0.00 0.00 0.00 86 1002.0
20260502041004 52 318 0.0 0.0 0.00 0.00 0.00 85 1002.0
20260502035004 53 6 0.0 0.0 0.00 0.00 0.00 83 1002.4
20260502034004 53 284 0.0 2.0 0.00 0.00 0.00 83 1002.0
20260502033004 54 240 0.0 3.0 0.00 0.00 0.00 82 1002.0
20260502032004 54 204 0.0 3.0 0.00 0.00 0.00 82 1002.0
20260502030004 54 35 0.0 0.0 0.00 0.00 0.00 80 1002.4
20260502025004 54 306 0.0 0.0 0.00 0.00 0.00 79 1002.0
20260502024004 55 176 0.0 0.0 0.00 0.00 0.00 78 1002.0
20260502023004 55 334 0.0 0.0 0.00 0.00 0.00 78 1002.0
20260502022004 55 294 0.0 2.0 0.00 0.00 0.00 77 1002.0
20260502021004 55 257 1.0 2.0 0.00 0.00 0.00 76 1001.9
20260502020004 56 338 0.0 3.0 0.00 0.00 0.00 76 1001.7
20260502015005 56 332 2.0 3.0 0.00 0.00 0.00 75 1002.0
20260502014003 56 324 0.0 3.0 0.00 0.00 0.00 74 1001.7
20260502013004 57 277 1.0 3.0 0.00 0.00 0.00 73 1001.7
20260502012004 57 13 0.0 3.0 0.00 0.00 0.00 72 1001.7
20260502011004 58 264 2.0 3.0 0.00 0.00 0.00 71 1001.4
20260502010004 58 359 1.0 5.0 0.00 0.00 0.00 70 1001.0
20260502005004 59 258 2.0 7.0 0.00 0.00 0.00 69 1001.0
20260502004005 59 292 2.0 5.0 0.00 0.00 0.00 68 1001.0
20260502003004 60 267 5.0 7.0 0.00 0.00 0.00 67 1000.7
20260502001004 61 245 2.0 8.0 0.00 0.00 0.00 64 1000.0
20260502000005 62 347 2.0 9.0 0.00 0.00 0.00 61 1000.3
20260501235004 62 233 8.0 9.0 0.00 0.00 0.00 60 1000.3
20260501234005 64 318 2.0 6.0 0.00 0.00 0.00 57 1000.3
20260501233004 70 36 3.0 3.0 0.00 0.00 0.00 42 1001.4
20260501232004 70 36 3.0 3.0 0.00 0.00 0.00 42 1001.4
20260501231004 70 36 3.0 3.0 0.00 0.00 0.00 42 1001.4
20260501230004 70 36 3.0 3.0 0.00 0.00 0.00 42 1001.4
20260501224004 70 36 3.0 3.0 0.00 0.00 0.00 42 1001.4
20260501222004 70 36 3.0 3.0 0.00 0.00 0.00 42 1001.4
20260501220005 70 36 3.0 3.0 0.00 0.00 0.00 42 1001.4
20260501214004 70 36 3.0 3.0 0.00 0.00 0.00 42 1001.4
20260501213004 70 36 3.0 3.0 0.00 0.00 0.00 42 1001.4
20260501212004 70 36 3.0 3.0 0.00 0.00 0.00 42 1001.4
20260501211005 70 36 3.0 3.0 0.00 0.00 0.00 42 1001.4
20260501210004 70 36 3.0 3.0 0.00 0.00 0.00 42 1001.4
20260501205005 70 36 3.0 3.0 0.00 0.00 0.00 42 1001.4
20260501204004 70 36 3.0 3.0 0.00 0.00 0.00 42 1001.4
20260501203004 70 36 3.0 6.0 0.00 0.00 0.00 42 1001.4
20260501201004 71 285 2.0 9.0 0.00 0.00 0.00 40 1001.4
20260501200006 71 342 6.0 9.0 0.00 0.00 0.00 37 1001.7
20260501195004 70 188 3.0 7.0 0.00 0.00 0.00 41 1002.0
20260501193004 71 264 3.0 10.0 0.00 0.00 0.00 38 1002.4
20260501192004 71 331 3.0 8.0 0.00 0.00 0.00 40 1002.4
20260501191004 69 318 4.0 8.0 0.00 0.00 0.00 40 1002.7
20260501190006 70 345 3.0 8.0 0.00 0.00 0.00 40 1002.7
20260501185004 70 308 3.0 9.0 0.00 0.00 0.00 39 1003.0
20260501184004 70 5 5.0 9.0 0.00 0.00 0.00 37 1003.0
20260501183005 70 63 1.0 5.0 0.00 0.00 0.00 38 1003.0
20260501182003 70 333 2.0 7.0 0.00 0.00 0.00 38 1003.4
20260501180004 69 337 1.0 6.0 0.00 0.00 0.00 39 1003.7
20260501175004 67 11 3.0 7.0 0.00 0.00 0.00 40 1004.1
20260501174004 68 232 2.0 8.0 0.00 0.00 0.00 39 1004.1
20260501173005 68 276 0.0 8.0 0.00 0.00 0.00 42 1004.1
20260501172004 69 317 2.0 5.0 0.00 0.00 0.00 39 1004.1
20260501171004 69 328 1.0 3.0 0.00 0.00 0.00 44 1004.1
20260501170004 68 323 2.0 6.0 0.00 0.00 0.00 41 1004.4
20260501164004 69 25 7.0 7.0 0.00 0.00 0.00 38 1004.7
20260501163004 67 19 2.0 3.0 0.00 0.00 0.00 42 1005.1
20260501162004 69 276 3.0 3.0 0.00 0.00 0.00 40 1005.1